{"data":{"norad_id":60991,"intl_designator":"2024-158B","name":"STARLINK-11289 [DTC]","alt_names":[],"object_type":"PAYLOAD","status":"ACTIVE","operator":null,"country":"US","launch_date":"2024-09-05","launch_site_code":"AFETR","launch_vehicle":null,"mission":null,"orbit_class":"UNKNOWN","rcs_meters":null,"size_class":null,"mass_kg":null,"dimensions":null,"purposes":["comms"],"wikipedia_slug":null,"has_3d_model":false,"image_url":null,"decayed_at":null,"tle_current":{"epoch":"2026-05-24T17:59:57.561792Z","epoch_age_seconds":90584,"freshness":"FRESH","line1":"1 60991U 24158B   26144.74997178 -.00000781  00000+0 -15938-5 0  9992","line2":"2 60991  53.1580 266.1009 0000648  75.9646 284.1444 15.69700603 99549","mean_motion":15.69700603,"eccentricity":6.48e-5,"inclination_deg":53.158,"raan_deg":266.1009,"arg_perigee_deg":75.9646,"mean_anomaly_deg":284.1444,"bstar":-1.5938e-6,"rev_number":9954,"period_min":91.73723939762,"perigee_km":359.3170258574,"apogee_km":360.1902564845,"semimajor_km":6737.8906411709,"source":"CELESTRAK","updated_at":"2026-05-25T13:38:19.322068Z"}}}